Weather History for K0A9 - September, 2013

Change the Weather History Date:

Wednesday, September 18, 2013

  Actual Average (KTRI) Record (KTRI)
Temperature  
Mean Temperature 63 °F 66 °F  
Max Temperature 71 °F 79 °F 93 °F (1954)
Min Temperature 55 °F 54 °F 39 °F (1943)
Degree Days  
Heating Degree Days 2 2  
Month to date heating degree days 11  
Since 1 July heating degree days 12  
Cooling Degree Days 0 3  
Month to date cooling degree days 91  
Year to date cooling degree days 943  
Growing Degree Days 13 (Base 50)    
Moisture  
Dew Point 56 °F    
Average Humidity 82    
Maximum Humidity 100    
Minimum Humidity 56    
Precipitation  
Precipitation 0.00 in 0.10 in 2.00 in (2012)
Month to date precipitation 1.89  
Year to date precipitation 31.34  
Snow  
Snow 0.00 in 0.00 in - ()
Month to date snowfall 0.0  
Since 1 July snowfall 0.0  
Since 1 September snowfall 0.0  
Snow Depth -    
Sea Level Pressure  
Sea Level Pressure 30.24 in    
Wind  
Wind Speed 4 mph (East)    
Max Wind Speed 8 mph    
Max Gust Speed -    
Visibility 9 miles    
Events Rain    
T = Trace of Precipitation, MM = Missing Value Source: NWS Daily Summary

Daily Weather History Graph

Daily Weather History Graph

Search for Another Location

Airport or City:

Trip Planner

Search our weather history database for the weather conditions in past years. The results will help you decide how hot, cold, wet, or windy it might be!

Date:

Astronomy

Sep. 18, 2013 Rise Set
Actual Time 7:13 AM EDT 7:31 PM EDT
Civil Twilight 6:47 AM EDT 7:56 PM EDT
Nautical Twilight 6:17 AM EDT 8:27 PM EDT
Astronomical Twilight 5:46 AM EDT 8:57 PM EDT
Moon 6:54 PM EDT (9/18) 6:15 AM EDT (9/18)
Length of Visible Light 13h 09m
Length of Day
12h 17m
Waxing Gibbous, 99% of the Moon is Illuminated
Sep 18
Waxing Gibbous
Sep 19
Full
Sep 26
Last Quarter
Oct 4
New
Oct 11
First Quarter

Hourly Weather History & Observations

Time (EDT) Temp. Dew Point Humidity Pressure Visibility Wind Dir Wind Speed Gust Speed Precip Events Conditions
12:15 AM 60.8 °F 51.8 °F 72% 30.28 in 10.0 mi ENE 5.8 mph - N/A   Mostly Cloudy
12:35 AM 60.8 °F 51.8 °F 72% 30.27 in 10.0 mi ENE 4.6 mph - N/A   Mostly Cloudy
12:55 AM 60.8 °F 51.8 °F 72% 30.27 in 10.0 mi East 5.8 mph - N/A   Partly Cloudy
1:15 AM 60.8 °F 51.8 °F 72% 30.27 in 10.0 mi Variable 4.6 mph - N/A   Mostly Cloudy
1:35 AM 60.8 °F 51.8 °F 72% 30.27 in 10.0 mi ENE 4.6 mph - N/A   Scattered Clouds
1:55 AM 60.8 °F 51.8 °F 72% 30.27 in 10.0 mi East 4.6 mph - N/A   Mostly Cloudy
2:15 AM 60.8 °F 50.0 °F 68% 30.26 in 10.0 mi East 5.8 mph - N/A   Mostly Cloudy
2:35 AM 60.8 °F 50.0 °F 68% 30.26 in 10.0 mi ENE 6.9 mph - N/A   Scattered Clouds
2:55 AM 60.8 °F 50.0 °F 68% 30.26 in 10.0 mi ENE 5.8 mph - N/A   Partly Cloudy
3:15 AM 60.8 °F 50.0 °F 68% 30.25 in 10.0 mi NE 5.8 mph - N/A   Mostly Cloudy
3:35 AM 60.8 °F 50.0 °F 68% 30.25 in 10.0 mi East 5.8 mph - N/A   Overcast
3:55 AM 60.8 °F 50.0 °F 68% 30.25 in 10.0 mi East 8.1 mph - N/A   Mostly Cloudy
4:15 AM 59.0 °F 50.0 °F 72% 30.25 in 10.0 mi ENE 5.8 mph - N/A   Scattered Clouds
4:35 AM 59.0 °F 50.0 °F 72% 30.25 in 10.0 mi NE 4.6 mph - N/A   Partly Cloudy
4:55 AM 59.0 °F 50.0 °F 72% 30.25 in 10.0 mi ENE 4.6 mph - N/A   Scattered Clouds
5:15 AM 57.2 °F 51.8 °F 82% 30.25 in 10.0 mi East 4.6 mph - N/A   Overcast
5:35 AM 57.2 °F 51.8 °F 82% 30.25 in 10.0 mi East 4.6 mph - N/A   Overcast
5:55 AM 57.2 °F 51.8 °F 82% 30.25 in 10.0 mi East 4.6 mph - N/A   Mostly Cloudy
6:15 AM 55.4 °F 51.8 °F 88% 30.25 in 10.0 mi East 4.6 mph - N/A   Partly Cloudy
6:35 AM 55.4 °F 50.0 °F 82% 30.26 in 10.0 mi East 4.6 mph - N/A   Partly Cloudy
6:55 AM 55.4 °F 51.8 °F 88% 30.26 in 10.0 mi ENE 3.5 mph - N/A   Mostly Cloudy
7:15 AM 57.2 °F 51.8 °F 82% 30.27 in 10.0 mi East 4.6 mph - N/A   Overcast
7:35 AM 55.4 °F 51.8 °F 88% 30.26 in 10.0 mi ENE 4.6 mph - N/A   Partly Cloudy
7:55 AM 55.4 °F 51.8 °F 88% 30.27 in 10.0 mi East 4.6 mph - N/A   Partly Cloudy
8:15 AM 57.2 °F 51.8 °F 82% 30.28 in 10.0 mi East 3.5 mph - N/A   Partly Cloudy
8:35 AM 57.2 °F 51.8 °F 82% 30.27 in 10.0 mi East 4.6 mph - N/A   Mostly Cloudy
8:55 AM 60.8 °F 51.8 °F 72% 30.27 in 10.0 mi East 6.9 mph - N/A   Partly Cloudy
9:15 AM 60.8 °F 51.8 °F 72% 30.28 in 10.0 mi ESE 5.8 mph - N/A   Clear
9:35 AM 62.6 °F 51.8 °F 68% 30.28 in 10.0 mi East 6.9 mph - N/A   Clear
9:55 AM 64.4 °F 51.8 °F 64% 30.28 in 10.0 mi Variable 4.6 mph - N/A   Partly Cloudy
10:15 AM 64.4 °F 51.8 °F 64% 30.28 in 10.0 mi East 6.9 mph - N/A   Partly Cloudy
10:35 AM 64.4 °F 53.6 °F 68% 30.28 in 10.0 mi SE 4.6 mph - N/A   Clear
10:55 AM 66.2 °F 53.6 °F 64% 30.28 in 10.0 mi East 6.9 mph - N/A   Mostly Cloudy
11:15 AM 66.2 °F 53.6 °F 64% 30.27 in 10.0 mi East 6.9 mph - N/A   Overcast
11:35 AM 66.2 °F 53.6 °F 64% 30.26 in 10.0 mi East 5.8 mph - N/A   Overcast
11:55 AM 69.8 °F 53.6 °F 56% 30.25 in 10.0 mi ESE 3.5 mph - N/A   Scattered Clouds
12:15 PM 69.8 °F 55.4 °F 60% 30.25 in 10.0 mi South 5.8 mph - N/A   Unknown
12:35 PM 69.8 °F 55.4 °F 60% 30.24 in 10.0 mi Calm Calm - N/A   Overcast
12:55 PM 71.6 °F 55.4 °F 57% 30.25 in 10.0 mi Variable 3.5 mph - N/A   Overcast
1:15 PM 69.8 °F 55.4 °F 60% 30.25 in 10.0 mi Variable 4.6 mph - N/A   Overcast
1:35 PM 69.8 °F 55.4 °F 60% 30.24 in 10.0 mi WNW 4.6 mph - N/A   Overcast
1:55 PM 66.2 °F 57.2 °F 73% 30.25 in 10.0 mi NW 6.9 mph - N/A   Overcast
2:15 PM 66.2 °F 55.4 °F 68% 30.25 in 10.0 mi NW 5.8 mph - N/A   Overcast
2:35 PM 64.4 °F 57.2 °F 77% 30.25 in 10.0 mi West 6.9 mph - N/A   Overcast
2:55 PM 62.6 °F 59.0 °F 88% 30.25 in 2.5 mi WNW 3.5 mph - N/A   Heavy Drizzle
3:15 PM 62.6 °F 60.8 °F 94% 30.25 in 1.8 mi Calm Calm - N/A Rain Light Rain
3:35 PM 60.8 °F 60.8 °F 100% 30.23 in 5.0 mi Calm Calm - N/A   Light Drizzle
4:15 PM 62.6 °F 60.8 °F 94% 30.22 in 4.0 mi Calm Calm - N/A   Mist
4:35 PM 62.6 °F 60.8 °F 94% 30.22 in 9.0 mi Calm Calm - N/A   Overcast
4:55 PM 60.8 °F 60.8 °F 100% 30.22 in 2.0 mi Calm Calm - N/A   Light Drizzle
5:15 PM 60.8 °F 60.8 °F 100% 30.22 in 6.0 mi Calm Calm - N/A   Overcast
5:35 PM 60.8 °F 60.8 °F 100% 30.21 in 3.0 mi Calm Calm - N/A Rain Light Rain
5:55 PM 60.8 °F 60.8 °F 100% 30.21 in 7.0 mi Calm Calm - N/A   Overcast
6:15 PM 60.8 °F 60.8 °F 100% 30.21 in 5.0 mi Calm Calm - N/A Rain Light Rain
6:35 PM 62.6 °F 60.8 °F 94% 30.21 in 8.0 mi Calm Calm - N/A Rain Light Rain
6:55 PM 60.8 °F 60.8 °F 100% 30.21 in 5.0 mi Calm Calm - N/A Rain Light Rain
7:15 PM 62.6 °F 60.8 °F 94% 30.20 in 9.0 mi Calm Calm - N/A   Light Drizzle
7:35 PM 62.6 °F 60.8 °F 94% 30.20 in 6.0 mi Calm Calm - N/A   Overcast
7:55 PM 62.6 °F 60.8 °F 94% 30.20 in 7.0 mi Calm Calm - N/A   Overcast
8:15 PM 62.6 °F 60.8 °F 94% 30.21 in 7.0 mi Calm Calm - N/A   Overcast
8:35 PM 60.8 °F 60.8 °F 100% 30.21 in 7.0 mi Calm Calm - N/A   Overcast
8:55 PM 60.8 °F 60.8 °F 100% 30.21 in 8.0 mi East 3.5 mph - N/A   Overcast
9:15 PM 60.8 °F 60.8 °F 100% 30.22 in 8.0 mi Calm Calm - N/A   Overcast
9:35 PM 60.8 °F 60.8 °F 100% 30.22 in 7.0 mi Calm Calm - N/A   Overcast
9:55 PM 60.8 °F 60.8 °F 100% 30.22 in 9.0 mi East 5.8 mph - N/A   Overcast
10:15 PM 60.8 °F 60.8 °F 100% 30.22 in 8.0 mi Variable 3.5 mph - N/A   Overcast
10:35 PM 60.8 °F 60.8 °F 100% 30.22 in 10.0 mi Calm Calm - N/A   Overcast
10:55 PM 60.8 °F 60.8 °F 100% 30.22 in 10.0 mi East 3.5 mph - N/A   Overcast
11:15 PM 60.8 °F 60.8 °F 100% 30.22 in 10.0 mi East 3.5 mph - N/A   Overcast
11:35 PM 60.8 °F 60.8 °F 100% 30.22 in 10.0 mi ENE 3.5 mph - N/A   Overcast
11:55 PM 60.8 °F 60.8 °F 100% 30.22 in 10.0 mi Calm Calm - N/A   Overcast